This is the latest recevied weather packets stored in our database for station/object F4IVW-13. If no packets are shown the sender has not sent any weather packets the latest 10 day(s).
| Time | Temp. | Humidity | Pressure | Rain* | Wind** | Luminosity | Snow |
|---|---|---|---|---|---|---|---|
| 1777468403 | 20° C | 99% | 1010.6 hPa | 0 mm | - | 11 W/m² | - |
| 1777468086 | 19.44° C | 99% | 1010.6 hPa | 0 mm | - | 11 W/m² | - |
| 1777467778 | 19.44° C | 99% | 1010.6 hPa | 0 mm | - | 22 W/m² | - |
| 1777467452 | 18.89° C | 99% | 1010.6 hPa | 0 mm | - | 41 W/m² | - |
| 1777467135 | 18.33° C | 99% | 1010.7 hPa | 0 mm | - | 22 W/m² | - |
| 1777466818 | 18.33° C | 99% | 1010.6 hPa | 0 mm | - | 14 W/m² | - |
| 1777466500 | 18.33° C | 99% | 1010.5 hPa | 0.25 mm | - | 13 W/m² | - |
| 1777466183 | 17.78° C | 99% | 1010.3 hPa | 0.25 mm | - | 10 W/m² | - |
| 1777465875 | 17.78° C | 99% | 1010.4 hPa | 0.25 mm | - | 8 W/m² | - |
| 1777465549 | 17.22° C | 99% | 1010.5 hPa | 0.25 mm | - | 6 W/m² | - |
| 1777465232 | 17.22° C | 99% | 1010.5 hPa | 0 mm | - | 5 W/m² | - |
| 1777464915 | 17.22° C | 99% | 1010.6 hPa | 0 mm | - | 3 W/m² | - |
| 1777464598 | 17.22° C | 99% | 1010.7 hPa | 0 mm | - | 2 W/m² | - |
| 1777464281 | 17.22° C | 99% | 1010.7 hPa | 0 mm | - | 2 W/m² | - |
| 1777463973 | 16.67° C | 99% | 1010.6 hPa | 0 mm | - | 2 W/m² | - |
| 1777463644 | 16.67° C | 99% | 1010.6 hPa | 0 mm | - | 2 W/m² | - |
| 1777463328 | 16.67° C | 99% | 1010.7 hPa | 0 mm | - | 2 W/m² | - |
| 1777463009 | 16.67° C | 99% | 1010.7 hPa | 0.25 mm | - | 2 W/m² | - |
| 1777462692 | 16.67° C | 99% | 1010.9 hPa | 0.25 mm | - | 2 W/m² | - |
| 1777462374 | 16.67° C | 99% | 1010.8 hPa | 0.25 mm | - | 2 W/m² | - |
| 1777462068 | 16.67° C | 99% | 1010.8 hPa | 0.25 mm | - | 2 W/m² | - |
| 1777461739 | 16.67° C | 99% | 1010.8 hPa | 0 mm | - | 2 W/m² | - |
| 1777461422 | 16.67° C | 99% | 1010.8 hPa | 0 mm | - | 2 W/m² | - |
| 1777461105 | 16.67° C | 99% | 1010.7 hPa | 0 mm | - | 1 W/m² | - |
| 1777460788 | 16.67° C | 99% | 1010.8 hPa | 0 mm | - | 1 W/m² | - |
* Rain latest hour (hover to see other rain measurements)
** Current wind speed in m/s (hover to see current wind gust speed)